Wetterdaten: Woche 12.12.05 - 18.12.05 (KW50)
Datum Zeit Temperatur Luftfeuchte Luftdruck Niederschlag Windrichtung Wind
12.12.2005 00:00 -4,6 C 87 % 1030 hPa 0,0 l/m N 12,9 km/h (3 Bft)
12.12.2005 01:00 -5,0 C 89 % 1029 hPa 0,0 l/m N 14,3 km/h (3 Bft)
12.12.2005 02:00 -5,5 C 91 % 1029 hPa 0,0 l/m N 13,5 km/h (3 Bft)
12.12.2005 03:00 -5,6 C 93 % 1029 hPa 0,0 l/m N 12,5 km/h (3 Bft)
12.12.2005 04:00 -5,7 C 93 % 1028 hPa 0,0 l/m N 10,7 km/h (2 Bft)
12.12.2005 05:00 -5,6 C 93 % 1028 hPa 0,0 l/m N 12,5 km/h (3 Bft)
12.12.2005 06:00 -5,9 C 92 % 1027 hPa 0,0 l/m N 13,2 km/h (3 Bft)
12.12.2005 07:00 -6,0 C 93 % 1027 hPa 0,0 l/m NO 11,4 km/h (2 Bft)
12.12.2005 08:00 -5,9 C 91 % 1027 hPa 0,0 l/m N-NO 16,3 km/h (3 Bft)
12.12.2005 09:00 -5,6 C 91 % 1028 hPa 0,0 l/m N-NO 16,0 km/h (3 Bft)
12.12.2005 10:00 -4,7 C 87 % 1028 hPa 0,0 l/m NO 17,2 km/h (3 Bft)
12.12.2005 11:00 -3,1 C 77 % 1027 hPa 0,0 l/m N-NO 16,0 km/h (3 Bft)
12.12.2005 12:00 -0,8 C 64 % 1026 hPa 0,0 l/m N 14,5 km/h (3 Bft)
12.12.2005 13:00 1,0 C 54 % 1026 hPa 0,0 l/m N-NO 13,4 km/h (3 Bft)
12.12.2005 14:00 1,6 C 52 % 1025 hPa 0,0 l/m N-NO 13,9 km/h (3 Bft)
12.12.2005 15:00 0,6 C 52 % 1026 hPa 0,0 l/m NO 15,2 km/h (3 Bft)
12.12.2005 16:00 -0,7 C 56 % 1025 hPa 0,0 l/m N 11,0 km/h (2 Bft)
12.12.2005 17:00 -1,8 C 66 % 1026 hPa 0,0 l/m N 9,8 km/h (2 Bft)
12.12.2005 18:00 -1,1 C 79 % 1026 hPa 0,0 l/m N-NO 11,1 km/h (2 Bft)
12.12.2005 19:00 -0,6 C 84 % 1026 hPa 0,0 l/m N-NO 14,8 km/h (3 Bft)
12.12.2005 20:00 -0,3 C 83 % 1027 hPa 0,0 l/m N-NO 13,5 km/h (3 Bft)
12.12.2005 21:00 0,1 C 84 % 1027 hPa 0,0 l/m N-NO 10,5 km/h (2 Bft)
12.12.2005 22:00 0,3 C 85 % 1027 hPa 0,0 l/m N-NO 11,7 km/h (2 Bft)
12.12.2005 23:00 0,5 C 83 % 1027 hPa 0,0 l/m N-NO 11,1 km/h (2 Bft)
13.12.2005 00:00 0,4 C 82 % 1027 hPa 0,0 l/m N-NO 12,8 km/h (3 Bft)
13.12.2005 01:00 0,2 C 81 % 1027 hPa 0,0 l/m N-NO 11,5 km/h (2 Bft)
13.12.2005 02:00 -0,8 C 82 % 1027 hPa 0,0 l/m N 4,0 km/h (1 Bft)
13.12.2005 03:00 -1,7 C 86 % 1027 hPa 0,0 l/m N 7,3 km/h (2 Bft)
13.12.2005 04:00 -2,2 C 89 % 1028 hPa 0,0 l/m N 5,9 km/h (2 Bft)
13.12.2005 05:00 -2,2 C 91 % 1027 hPa 0,0 l/m N 6,2 km/h (2 Bft)
13.12.2005 06:00 -1,8 C 93 % 1028 hPa 0,0 l/m N 10,0 km/h (2 Bft)
13.12.2005 07:00 -1,7 C 91 % 1028 hPa 0,0 l/m N 3,7 km/h (1 Bft)
13.12.2005 08:00 -1,5 C 87 % 1029 hPa 0,0 l/m N-NO 8,4 km/h (2 Bft)
13.12.2005 09:00 -1,0 C 81 % 1029 hPa 0,0 l/m N-NO 10,2 km/h (2 Bft)
13.12.2005 10:00 -0,7 C 87 % 1029 hPa 0,0 l/m N-NO 10,4 km/h (2 Bft)
13.12.2005 11:00 -0,5 C 95 % 1029 hPa 0,0 l/m N-NO 10,1 km/h (2 Bft)
13.12.2005 12:00 0,2 C 97 % 1029 hPa 0,0 l/m N-NO 13,6 km/h (3 Bft)
13.12.2005 13:00 0,2 C 99 % 1028 hPa 0,0 l/m N-NO 16,9 km/h (3 Bft)
13.12.2005 14:00 0,2 C 100 % 1028 hPa 0,0 l/m N-NO 14,2 km/h (3 Bft)
13.12.2005 15:00 0,1 C 100 % 1029 hPa 0,0 l/m N-NO 13,5 km/h (3 Bft)
13.12.2005 16:00 -0,0 C 100 % 1028 hPa 0,0 l/m N-NO 14,2 km/h (3 Bft)
13.12.2005 17:00 -0,2 C 100 % 1028 hPa 0,0 l/m N 13,2 km/h (3 Bft)
13.12.2005 18:00 -0,3 C 97 % 1028 hPa 0,0 l/m N-NO 16,0 km/h (3 Bft)
13.12.2005 19:00 -0,2 C 91 % 1028 hPa 0,0 l/m N 13,7 km/h (3 Bft)
13.12.2005 20:00 -0,2 C 89 % 1028 hPa 0,0 l/m N 12,3 km/h (3 Bft)
13.12.2005 21:00 -0,4 C 90 % 1028 hPa 0,0 l/m N 10,0 km/h (2 Bft)
13.12.2005 22:00 -0,4 C 91 % 1028 hPa 0,0 l/m N-NO 8,1 km/h (2 Bft)
13.12.2005 23:00 -0,6 C 91 % 1027 hPa 0,0 l/m N-NO 8,6 km/h (2 Bft)
14.12.2005 00:00 -0,7 C 89 % 1027 hPa 0,0 l/m N 9,1 km/h (2 Bft)
14.12.2005 01:00 -0,7 C 80 % 1026 hPa 0,0 l/m N 9,4 km/h (2 Bft)
14.12.2005 02:00 -0,8 C 77 % 1026 hPa 0,0 l/m N 3,6 km/h (1 Bft)
14.12.2005 03:00 -0,9 C 80 % 1025 hPa 0,0 l/m N 0,0 km/h (0 Bft)
14.12.2005 04:00 -1,0 C 81 % 1025 hPa 0,0 l/m N 0,0 km/h (0 Bft)
14.12.2005 05:00 -1,0 C 82 % 1025 hPa 0,0 l/m N 0,0 km/h (0 Bft)
14.12.2005 06:00 -1,1 C 84 % 1024 hPa 0,0 l/m N 0,0 km/h (0 Bft)
14.12.2005 07:00 -1,1 C 85 % 1024 hPa 0,0 l/m N 0,0 km/h (0 Bft)
14.12.2005 08:00 -1,0 C 85 % 1024 hPa 0,0 l/m N 0,0 km/h (0 Bft)
14.12.2005 09:00 -0,9 C 85 % 1024 hPa 0,0 l/m N 0,0 km/h (0 Bft)
14.12.2005 10:00 -0,6 C 85 % 1024 hPa 0,0 l/m N 0,0 km/h (0 Bft)
14.12.2005 11:00 -0,3 C 82 % 1024 hPa 0,0 l/m N 0,0 km/h (0 Bft)
14.12.2005 12:00 0,0 C 79 % 1023 hPa 0,0 l/m N 0,0 km/h (0 Bft)
14.12.2005 13:00 0,5 C 76 % 1023 hPa 0,0 l/m N 0,0 km/h (0 Bft)
14.12.2005 14:00 0,8 C 71 % 1023 hPa 0,0 l/m N 0,0 km/h (0 Bft)
14.12.2005 15:00 0,6 C 73 % 1023 hPa 0,0 l/m N 0,0 km/h (0 Bft)
14.12.2005 16:00 0,4 C 73 % 1023 hPa 0,0 l/m N 0,0 km/h (0 Bft)
14.12.2005 17:00 0,2 C 76 % 1023 hPa 0,0 l/m N 0,0 km/h (0 Bft)
14.12.2005 18:00 -0,1 C 79 % 1023 hPa 0,0 l/m N 0,0 km/h (0 Bft)
14.12.2005 19:00 -0,2 C 80 % 1024 hPa 0,0 l/m N 0,0 km/h (0 Bft)
14.12.2005 20:00 -0,4 C 81 % 1024 hPa 0,0 l/m N 0,0 km/h (0 Bft)
14.12.2005 21:00 -0,6 C 83 % 1024 hPa 0,0 l/m N 0,0 km/h (0 Bft)
14.12.2005 22:00 -0,6 C 84 % 1023 hPa 0,0 l/m N 0,0 km/h (0 Bft)
14.12.2005 23:00 -0,6 C 85 % 1023 hPa 0,0 l/m N 0,0 km/h (0 Bft)
15.12.2005 00:00 -0,6 C 86 % 1023 hPa 0,0 l/m N 0,0 km/h (0 Bft)
15.12.2005 01:00 -0,6 C 87 % 1023 hPa 0,0 l/m N 0,0 km/h (0 Bft)
15.12.2005 02:00 -0,7 C 88 % 1023 hPa 0,0 l/m N 0,0 km/h (0 Bft)
15.12.2005 03:00 -0,9 C 88 % 1022 hPa 0,0 l/m N 0,0 km/h (0 Bft)
15.12.2005 04:00 -1,1 C 88 % 1022 hPa 0,0 l/m N 0,0 km/h (0 Bft)
15.12.2005 05:00 -1,7 C 87 % 1022 hPa 0,0 l/m N 0,0 km/h (0 Bft)
15.12.2005 06:00 -1,7 C 87 % 1022 hPa 0,0 l/m N 0,0 km/h (0 Bft)
15.12.2005 07:00 -2,1 C 84 % 1021 hPa 0,0 l/m N 0,0 km/h (0 Bft)
15.12.2005 08:00 -2,4 C 87 % 1021 hPa 0,0 l/m N 0,0 km/h (0 Bft)
15.12.2005 09:00 -1,5 C 87 % 1022 hPa 0,0 l/m N 0,0 km/h (0 Bft)
15.12.2005 10:00 -1,2 C 89 % 1022 hPa 0,0 l/m N 0,0 km/h (0 Bft)
15.12.2005 11:00 -0,3 C 85 % 1021 hPa 0,0 l/m N 0,0 km/h (0 Bft)
15.12.2005 12:00 0,6 C 81 % 1020 hPa 0,0 l/m N 0,0 km/h (0 Bft)
15.12.2005 13:00 1,2 C 73 % 1020 hPa 0,0 l/m N 0,0 km/h (0 Bft)
15.12.2005 14:00 1,2 C 72 % 1019 hPa 0,0 l/m W-SW 2,4 km/h (1 Bft)
15.12.2005 15:00 1,2 C 71 % 1019 hPa 0,0 l/m SW 14,6 km/h (3 Bft)
15.12.2005 16:00 1,2 C 71 % 1018 hPa 0,0 l/m SW 16,5 km/h (3 Bft)
15.12.2005 17:00 1,4 C 70 % 1018 hPa 0,0 l/m SW 18,6 km/h (3 Bft)
15.12.2005 18:00 1,4 C 70 % 1018 hPa 0,0 l/m SW 24,0 km/h (4 Bft)
15.12.2005 19:00 1,5 C 70 % 1018 hPa 0,0 l/m SW 23,5 km/h (4 Bft)
15.12.2005 20:00 1,6 C 71 % 1018 hPa 0,0 l/m W-SW 21,8 km/h (4 Bft)
15.12.2005 21:00 1,6 C 74 % 1018 hPa 0,0 l/m SW 21,1 km/h (4 Bft)
15.12.2005 22:00 1,6 C 78 % 1018 hPa 0,0 l/m W-SW 21,1 km/h (4 Bft)
15.12.2005 23:00 1,7 C 77 % 1017 hPa 0,0 l/m W-SW 20,8 km/h (4 Bft)
16.12.2005 00:00 1,6 C 78 % 1017 hPa 0,0 l/m W-SW 21,9 km/h (4 Bft)
16.12.2005 01:00 1,6 C 79 % 1016 hPa 0,0 l/m SW 23,0 km/h (4 Bft)
16.12.2005 02:00 1,6 C 79 % 1015 hPa 0,0 l/m W-SW 23,1 km/h (4 Bft)
16.12.2005 03:00 1,7 C 78 % 1014 hPa 0,0 l/m SW 26,2 km/h (4 Bft)
16.12.2005 04:00 1,9 C 76 % 1013 hPa 0,0 l/m SW 28,2 km/h (4 Bft)
16.12.2005 05:00 2,0 C 79 % 1011 hPa 0,0 l/m W-SW 28,8 km/h (5 Bft)
16.12.2005 06:00 2,1 C 80 % 1010 hPa 0,0 l/m SW 33,4 km/h (5 Bft)
16.12.2005 07:00 2,3 C 79 % 1009 hPa 0,0 l/m SW 33,5 km/h (5 Bft)
16.12.2005 08:00 1,6 C 88 % 1008 hPa 0,0 l/m S 35,3 km/h (5 Bft)
16.12.2005 09:00 1,3 C 94 % 1007 hPa 0,0 l/m S-SO 31,8 km/h (5 Bft)
16.12.2005 10:00 1,7 C 94 % 1007 hPa 0,0 l/m S 30,3 km/h (5 Bft)
16.12.2005 11:00 2,1 C 91 % 1006 hPa 0,0 l/m S 32,3 km/h (5 Bft)
16.12.2005 12:00 2,5 C 87 % 1004 hPa 0,0 l/m S 32,6 km/h (5 Bft)
16.12.2005 13:00 2,6 C 87 % 1004 hPa 0,0 l/m S 28,7 km/h (4 Bft)
16.12.2005 14:00 2,4 C 90 % 1004 hPa 0,0 l/m S-SO 29,6 km/h (5 Bft)
16.12.2005 15:00 2,5 C 92 % 1003 hPa 1,0 l/m S-SO 28,4 km/h (4 Bft)
16.12.2005 16:00 2,8 C 93 % 1003 hPa 0,0 l/m SW 27,1 km/h (4 Bft)
16.12.2005 17:00 3,1 C 91 % 1003 hPa 0,0 l/m S-SW 27,4 km/h (4 Bft)
16.12.2005 18:00 2,1 C 91 % 1004 hPa 0,0 l/m W 14,4 km/h (3 Bft)
16.12.2005 19:00 1,4 C 97 % 1004 hPa 0,0 l/m SW 20,4 km/h (4 Bft)
16.12.2005 20:00 1,9 C 96 % 1005 hPa 0,0 l/m S-SW 17,1 km/h (3 Bft)
16.12.2005 21:00 1,9 C 91 % 1006 hPa 1,0 l/m S-SW 8,6 km/h (2 Bft)
16.12.2005 22:00 1,6 C 88 % 1007 hPa 0,0 l/m SW 9,3 km/h (2 Bft)
16.12.2005 23:00 1,1 C 87 % 1006 hPa 0,0 l/m SW 9,8 km/h (2 Bft)
17.12.2005 00:00 1,1 C 83 % 1006 hPa 0,0 l/m S-SW 11,3 km/h (2 Bft)
17.12.2005 01:00 0,5 C 87 % 1006 hPa 0,0 l/m SW 13,9 km/h (3 Bft)
17.12.2005 02:00 0,4 C 89 % 1006 hPa 0,0 l/m SW 14,3 km/h (3 Bft)
17.12.2005 03:00 0,3 C 79 % 1006 hPa 0,0 l/m SW 16,7 km/h (3 Bft)
17.12.2005 04:00 0,2 C 79 % 1006 hPa 0,0 l/m S-SW 12,6 km/h (3 Bft)
17.12.2005 05:00 -0,0 C 84 % 1005 hPa 0,0 l/m S 14,5 km/h (3 Bft)
17.12.2005 06:00 -0,1 C 89 % 1005 hPa 0,0 l/m S-SW 12,9 km/h (3 Bft)
17.12.2005 07:00 -0,3 C 91 % 1006 hPa 0,0 l/m SW 16,6 km/h (3 Bft)
17.12.2005 08:00 -1,2 C 90 % 1006 hPa 0,0 l/m W 12,8 km/h (3 Bft)
17.12.2005 09:00 -1,6 C 95 % 1007 hPa 0,0 l/m W 17,1 km/h (3 Bft)
17.12.2005 10:00 -1,5 C 98 % 1008 hPa 0,0 l/m W 14,8 km/h (3 Bft)
17.12.2005 11:00 -1,3 C 97 % 1008 hPa 0,0 l/m SW 16,0 km/h (3 Bft)
17.12.2005 12:00 -1,2 C 82 % 1008 hPa 0,0 l/m W 16,4 km/h (3 Bft)
17.12.2005 13:00 0,2 C 63 % 1008 hPa 0,0 l/m SW 15,3 km/h (3 Bft)
17.12.2005 14:00 0,8 C 57 % 1008 hPa 0,0 l/m SW 10,0 km/h (2 Bft)
17.12.2005 15:00 -0,9 C 56 % 1009 hPa 0,0 l/m SW 18,2 km/h (3 Bft)
17.12.2005 16:00 -2,1 C 61 % 1009 hPa 0,0 l/m SW 13,7 km/h (3 Bft)
17.12.2005 17:00 -2,9 C 67 % 1009 hPa 0,0 l/m S 10,4 km/h (2 Bft)
17.12.2005 18:00 -3,7 C 73 % 1009 hPa 0,0 l/m S-SW 8,0 km/h (2 Bft)
17.12.2005 19:00 -3,2 C 82 % 1010 hPa 0,0 l/m S-SO 8,6 km/h (2 Bft)
17.12.2005 20:00 -2,9 C 88 % 1010 hPa 0,0 l/m S 9,9 km/h (2 Bft)
17.12.2005 21:00 -2,7 C 91 % 1010 hPa 0,0 l/m S 11,1 km/h (2 Bft)
17.12.2005 22:00 -2,7 C 92 % 1011 hPa 0,0 l/m SW 11,5 km/h (2 Bft)
17.12.2005 23:00 -3,0 C 88 % 1012 hPa 0,0 l/m W 13,8 km/h (3 Bft)
18.12.2005 00:00 -3,3 C 83 % 1013 hPa 0,0 l/m SW 9,5 km/h (2 Bft)
18.12.2005 01:00 -3,3 C 81 % 1014 hPa 0,0 l/m SW 8,4 km/h (2 Bft)
18.12.2005 02:00 -3,3 C 73 % 1015 hPa 0,0 l/m W 12,6 km/h (3 Bft)
18.12.2005 03:00 -3,9 C 69 % 1016 hPa 0,0 l/m W 2,5 km/h (1 Bft)
18.12.2005 04:00 -5,1 C 77 % 1017 hPa 0,0 l/m N 0,1 km/h (0 Bft)
18.12.2005 05:00 -5,7 C 81 % 1017 hPa 0,0 l/m SO 1,2 km/h (1 Bft)
18.12.2005 06:00 -4,7 C 86 % 1018 hPa 0,0 l/m S 9,1 km/h (2 Bft)
18.12.2005 07:00 -4,3 C 83 % 1018 hPa 0,0 l/m S-SW 10,8 km/h (2 Bft)
18.12.2005 08:00 -5,0 C 84 % 1019 hPa 0,0 l/m S-SW 9,6 km/h (2 Bft)
18.12.2005 09:00 -4,7 C 85 % 1020 hPa 0,0 l/m S-SO 6,1 km/h (2 Bft)
18.12.2005 10:00 -3,4 C 80 % 1020 hPa 0,0 l/m S-SO 10,9 km/h (2 Bft)
18.12.2005 11:00 -2,6 C 77 % 1020 hPa 0,0 l/m S-SO 14,4 km/h (3 Bft)
18.12.2005 12:00 -1,9 C 76 % 1020 hPa 0,0 l/m S 16,3 km/h (3 Bft)
18.12.2005 13:00 -1,4 C 76 % 1020 hPa 0,0 l/m S 17,2 km/h (3 Bft)
18.12.2005 14:00 -1,2 C 76 % 1020 hPa 0,0 l/m S 15,8 km/h (3 Bft)
18.12.2005 15:00 -1,4 C 77 % 1021 hPa 0,0 l/m S 15,9 km/h (3 Bft)
18.12.2005 16:00 -2,0 C 79 % 1021 hPa 0,0 l/m S 15,2 km/h (3 Bft)
18.12.2005 17:00 -2,2 C 82 % 1022 hPa 0,0 l/m S 13,6 km/h (3 Bft)
18.12.2005 18:00 -2,0 C 84 % 1022 hPa 0,0 l/m S 15,3 km/h (3 Bft)
18.12.2005 19:00 -2,0 C 82 % 1022 hPa 0,0 l/m S 13,3 km/h (3 Bft)
18.12.2005 20:00 -2,0 C 80 % 1022 hPa 0,0 l/m S-SW 14,3 km/h (3 Bft)
18.12.2005 21:00 -2,2 C 78 % 1023 hPa 0,0 l/m S 13,7 km/h (3 Bft)
18.12.2005 22:00 -2,5 C 78 % 1023 hPa 0,0 l/m S 15,5 km/h (3 Bft)
18.12.2005 23:00 -2,7 C 80 % 1023 hPa 0,0 l/m S-SO 15,0 km/h (3 Bft)
Min-Datum _ 12.12.05 12.12.05 16.12.05 - - 12.12.05
_ Min-Zeit 06:57 14:06 16:46 - - 00:06
Minimum _ -6,2 C 50 % 1002 hPa - - 0,0 km/h (0 Bft)
Max-Datum _ 16.12.05 13.12.05 12.12.05 16.12.05 - 16.12.05
_ Max-Zeit 18:02 13:35 00:00 15:38 - 10:39
Maximum _ 3,4 C 100 % 1030 hPa 1,0 l/m - 61,0 km/h
S (7 Bft)
Durchschnitt _ -0,8 C 83 % 1019 hPa #2,0 l/m N 11,8 km/h (2 Bft)

Durchschnitt Minimum Temp.-1,1 C
Durchschnitt Maximum Temp.-0,6 C